User: anonymous   Login
Location: Unspecified
(0.0000°N, 0.0000°E)
Time: 19:01:11
(UTC+00:00)
Language:

STARLINK-4490 - Orbit

View from above orbital plane
View from above orbital plane
View from above satellite
View from above satellite

Ground track
Ground track

The orbit is defined by the following mean orbital elements,

1 53409U          26145.34665020 +.00000000 +00000-0 +15004-6 0 00004
2 53409  53.2124 120.1873 0001334  81.2947 278.8196 15.08834922    07
Epoch (UTC): 25 May 2026 08:19:10
Eccentricity: 0.0001334
inclination: 53.2124°
perigee height: 539 km
apogee height: 541 km
right ascension of ascending node: 120.1873°
argument of perigee: 81.2947°
revolutions per day: 15.08834922
mean anomaly at epoch: 278.8196°

The dashed part of the orbit path shows where the satellite is in the earth's shadow,  

DLR